Weather History for KUIL - May, 2014

Change the Weather History Date:

Tuesday, May 13, 2014

  Actual Average Record
Temperature  
Mean Temperature 63 °F 51 °F  
Max Temperature 78 °F 59 °F 89 °F (1973)
Min Temperature 48 °F 43 °F 32 °F (2006)
Degree Days  
Heating Degree Days 2 14  
Month to date heating degree days 154 197  
Since 1 July heating degree days 4436 5239  
Cooling Degree Days 0 0  
Month to date cooling degree days 2 0  
Year to date cooling degree days 4 0  
Growing Degree Days 13 (Base 50)    
Moisture  
Dew Point 44 °F    
Average Humidity 57    
Maximum Humidity 86    
Minimum Humidity 27    
Precipitation  
Precipitation 0.00 in 0.16 in 1.27 in (1988)
Month to date precipitation 3.16 2.36  
Year to date precipitation 51.44 46.00  
Sea Level Pressure  
Sea Level Pressure 30.32 in    
Wind  
Wind Speed 6 mph (North)    
Max Wind Speed 16 mph    
Max Gust Speed 21 mph    
Visibility 7 miles    
Events      
T = Trace of Precipitation, MM = Missing Value Source: NWS Daily Summary

Daily Weather History Graph

Daily Weather History Graph

Search for Another Location

Airport or City:

Trip Planner

Search our weather history database for the weather conditions in past years. The results will help you decide how hot, cold, wet, or windy it might be!

Date:

Astronomy

May. 13, 2014 Rise Set
Actual Time 5:42 AM PDT 8:47 PM PDT
Civil Twilight 5:05 AM PDT 9:24 PM PDT
Nautical Twilight 4:18 AM PDT 10:12 PM PDT
Astronomical Twilight 3:19 AM PDT 11:11 PM PDT
Moon 7:50 PM PDT (5/13) 5:09 AM PDT (5/13)
Length of Visible Light 16h 19m
Length of Day
15h 05m
Waxing Gibbous, 99% of the Moon is Illuminated
May 13
Waxing Gibbous
May 14
Full
May 21
Last Quarter
May 28
New
Jun 5
First Quarter

Hourly Weather History & Observations

Time (PDT) Temp. Dew Point Humidity Pressure Visibility Wind Dir Wind Speed Gust Speed Precip Events Conditions
12:53 AM 57.0 °F 46.0 °F 67% 30.30 in 8.0 mi Calm Calm - N/A   Scattered Clouds
1:53 AM 57.9 °F 45.0 °F 62% 30.31 in 8.0 mi East 3.5 mph - N/A   Mostly Cloudy
2:53 AM 57.0 °F 45.0 °F 64% 30.31 in 8.0 mi East 6.9 mph - N/A   Scattered Clouds
3:53 AM 55.9 °F 44.1 °F 64% 30.30 in 8.0 mi East 5.8 mph - N/A   Clear
4:53 AM 52.0 °F 44.1 °F 74% 30.30 in 8.0 mi East 4.6 mph - N/A   Clear
5:53 AM 48.2 °F 44.6 °F 87% 30.31 in 7.0 mi Calm Calm - N/A   Clear
6:53 AM 54.0 °F 46.0 °F 75% 30.32 in 7.0 mi East 3.5 mph - N/A   Clear
7:53 AM 60.1 °F 46.9 °F 62% 30.34 in 7.0 mi ESE 3.5 mph - N/A   Clear
8:53 AM 66.2 °F 48.2 °F 52% 30.34 in 7.0 mi Calm Calm - N/A   Clear
9:53 AM 72.0 °F 48.0 °F 43% 30.35 in 7.0 mi Calm Calm - N/A   Clear
10:53 AM 75.0 °F 46.0 °F 36% 30.35 in 6.0 mi Calm Calm - N/A   Haze
11:53 AM 75.0 °F 50.0 °F 41% 30.35 in 7.0 mi WSW 8.1 mph - N/A   Clear
12:53 PM 75.9 °F 48.9 °F 38% 30.34 in 7.0 mi WSW 11.5 mph - N/A   Clear
1:53 PM 78.1 °F 48.0 °F 35% 30.34 in 7.0 mi West 12.7 mph - N/A   Clear
2:53 PM 77.0 °F 45.0 °F 32% 30.34 in 7.0 mi NW 13.8 mph 20.7 mph N/A   Clear
3:53 PM 75.9 °F 45.0 °F 33% 30.33 in 7.0 mi WNW 10.4 mph - N/A   Clear
4:53 PM 75.9 °F 43.0 °F 31% 30.32 in 7.0 mi NW 10.4 mph - N/A   Clear
5:53 PM 75.0 °F 39.0 °F 27% 30.32 in 7.0 mi NNW 13.8 mph - N/A   Clear
6:53 PM 71.1 °F 39.9 °F 32% 30.32 in 7.0 mi NNW 10.4 mph - N/A   Clear
7:53 PM 69.1 °F 39.9 °F 35% 30.31 in 7.0 mi North 5.8 mph - 0.00 in   Clear
8:53 PM 66.0 °F 39.9 °F 38% 30.31 in 7.0 mi North 6.9 mph - N/A   Clear
9:53 PM 62.1 °F 42.1 °F 48% 30.32 in 8.0 mi NNE 6.9 mph - N/A   Clear
10:53 PM 62.1 °F 42.1 °F 48% 30.32 in 8.0 mi North 8.1 mph - N/A   Clear
11:53 PM 59.0 °F 43.0 °F 55% 30.32 in 8.0 mi North 4.6 mph - N/A   Clear